Simultaneous Nadir Overpasses (SNOs) Predictions

Prediction of SNOs between GOES-17 and METOP-C Satellite Orbit:

Table of predicted SNOs for the next 14.0 days since TLE Epoch: 2/4/2023
Index Date Time (GOES-17) GOES-17 Lat,Lon METOP-C Lat,Lon Distance(km) Time Diff (sec)
1 02/06/2023 04:46:32 -0.01,-108.06 -0.31,-109.27 139.23 80
2 02/07/2023 04:28:30 -0.01,-106.90 0.59,-104.23 304.32 80
3 02/08/2023 16:44:35 0.01,-105.15 0.78,-108.71 404.86 80
4 02/09/2023 16:26:32 0.02,-104.00 -0.06,-103.66 38.78 80
5 02/10/2023 16:05:48 0.02,-102.85 -0.90, -98.61 482.63 80
6 02/12/2023 04:22:04 -0.02,-101.06 -0.47,-103.13 236.15 80
7 02/13/2023 04:04:01 -0.02, -99.90 0.38, -98.08 207.23 80
8 02/15/2023 15:59:23 0.01, -96.99 0.14, -97.51 59.31 80
9 02/16/2023 15:41:20 0.02, -95.83 -0.76, -92.47 383.88 80
